Location: Newark
(35.0033°N, 81.0878°W)
Time: 14:24:01
(UTC+00:00)

Envisat - Pass Details

Date: 04 August 2021
Orbit: 764 x 766 km, 98.2° (Epoch: 20 September)

Event Time Altitude Azimuth Distance (km) Brightness Sun altitude
Rises 09:35:44 0° 30° (NNE) 3,236 7.4 -11.9°
Reaches altitude 10° 09:38:40 10° 48° (NE) 2,305 6.9 -11.4°
Maximum altitude 09:42:18 20° 94° (E) 1,725 5.6 -10.8°
Drops below altitude 10° 09:45:56 10° 140° (SE) 2,293 5.6 -10.1°
Sets 09:48:50 0° 157° (SSE) 3,214 6.2 -9.6°
